GW1765 Weather Reports


time (UTC)temp
C
wind
direction
speed
KPH
gust
KPH
rain 1hr
cm
rain 24hr
cm
rain mn
cm
humidity
%
barometer
mb
20260904004052 -17 0.0 0.0 0.00 0.03 0.00 1010.3
20260904003050 -17 0.0 0.0 0.00 0.03 0.00 1010.4
20260904002045 -17 0.0 0.0 0.00 0.03 0.00 1010.3
20260904001042 -17 0.0 0.0 0.00 0.03 0.00 1010.3
20260904000038 -17 0.0 0.0 0.00 0.03 0.00 1010.4
20260903235034 14 0.0 3.2 0.00 0.03 0.00 99 1010.5
20260903234033 14 0.0 0.0 0.00 0.03 0.00 99 1010.8
20260903233030 14 293 0.0 8.0 0.00 0.03 0.00 99 1011.0
20260903232024 13 0.0 1.6 0.00 0.03 0.00 99 1011.1
20260903231020 14 0.0 3.2 0.00 0.03 0.00 99 1011.2
20260903230017 13 0.0 0.0 0.00 0.03 0.00 99 1011.2
20260903225114 13 0.0 0.0 0.00 0.03 0.00 99 1011.3
20260903224111 13 298 0.0 9.7 0.00 0.03 0.00 99 1011.2
20260903223107 13 0.0 0.0 0.00 0.03 0.00 99 1011.2
20260903222105 13 0.0 0.0 0.00 0.03 0.00 99 1011.2
20260903221100 13 0.0 0.0 0.00 0.03 0.00 99 1011.3
20260903220056 13 0.0 0.0 0.00 0.03 0.00 99 1011.5
20260903215053 13 0.0 0.0 0.00 0.03 0.00 99 1011.5
20260903214113 13 0.0 0.0 0.00 0.03 0.00 99 1011.6
20260903213047 13 0.0 0.0 0.00 0.03 0.00 99 1011.5
20260903212043 13 315 0.0 4.8 0.00 0.03 0.00 99 1011.4
20260903211039 13 0.0 4.8 0.00 0.03 0.00 99 1011.2
20260903210037 13 0.0 0.0 0.00 0.03 0.00 99 1011.1
20260903205052 13 0.0 0.0 0.00 0.03 0.00 99 1011.2
20260903204030 13 0.0 0.0 0.00 0.03 0.00 99 1011.2
20260903203025 13 0.0 0.0 0.00 0.03 0.00 99 1011.0
20260903202102 13 0.0 0.0 0.00 0.03 0.00 99 1011.0
20260903201019 13 0.0 0.0 0.00 0.03 0.00 99 1011.2
20260903200115 13 0.0 0.0 0.00 0.03 0.00 99 1011.4
20260903195111 13 0.0 0.0 0.00 0.03 0.00 99 1011.4
20260903194110 13 0.0 0.0 0.00 0.03 0.00 99 1011.3
20260903193104 13 0.0 0.0 0.00 0.03 0.00 99 1011.5
20260903192102 13 0.0 0.0 0.00 0.03 0.00 99 1011.4
20260903191057 13 0.0 0.0 0.00 0.03 0.00 99 1011.5
20260903190053 13 0.0 0.0 0.00 0.03 0.00 99 1011.7
20260903185051 13 0.0 0.0 0.00 0.03 0.00 99 1011.8
20260903184047 13 0.0 0.0 0.00 0.03 0.00 99 1011.9
20260903183043 13 0.0 0.0 0.00 0.03 0.00 99 1011.9
20260903182048 13 0.0 0.0 0.00 0.03 0.00 99 1011.9
20260903181036 13 0.0 0.0 0.00 0.03 0.00 99 1011.9
20260903180055 13 0.0 0.0 0.00 0.03 0.00 99 1012.1
20260903175029 13 0.0 0.0 0.00 0.03 0.00 99 1012.2
20260903174025 13 0.0 0.0 0.00 0.03 0.00 99 1012.2
20260903173022 13 0.0 0.0 0.00 0.03 0.00 99 1012.4
20260903172018 13 315 0.0 6.4 0.00 0.03 0.00 99 1012.6
20260903171116 13 0.0 0.0 0.00 0.03 0.00 99 1012.8
20260903170133 13 0.0 0.0 0.00 0.03 0.00 99 1012.7
20260903165130 13 293 0.0 9.7 0.00 0.03 0.00 99 1012.8
20260903164106 13 293 0.0 9.7 0.00 0.03 0.00 99 1013.0
20260903163101 13 293 0.0 9.7 0.00 0.03 0.00 99 1013.0
20260903162058 13 0.0 0.0 0.00 0.03 0.00 99 1012.9
20260903161054 13 0.0 0.0 0.00 0.03 0.00 99 1013.0
20260903160050 13 0.0 0.0 0.00 0.03 0.00 99 1013.1
20260903155047 13 0 1.6 12.9 0.00 0.03 0.00 99 1013.3
20260903154043 13 328 0.0 12.9 0.00 0.03 0.00 99 1013.2
20260903153101 13 293 0.0 8.0 0.00 0.03 0.00 99 1013.2
20260903152037 13 315 0.0 12.9 0.00 0.03 0.00 99 1013.3
20260903151033 13 0.0 3.2 0.00 0.03 0.00 99 1013.5
20260903150032 13 113 1.6 12.9 0.00 0.03 0.00 99 1013.5
20260903145026 13 315 0.0 6.4 0.00 0.03 0.00 99 1013.7
20260903144023 13 293 0.0 12.9 0.00 0.03 0.00 99 1013.9
20260903143021 13 0.0 4.8 0.00 0.03 0.00 99 1014.0
20260903142017 13 298 4.8 14.5 0.00 0.03 0.00 99 1014.3
20260903141112 13 315 0.0 11.3 0.00 0.03 0.00 99 1014.3
20260903140109 13 315 0.0 12.9 0.00 0.03 0.00 99 1014.4
20260903135105 13 309 1.6 14.5 0.00 0.03 0.00 99 1014.5
20260903134104 13 293 1.6 12.9 0.00 0.03 0.00 99 1014.6
20260903133059 13 308 0.0 8.0 0.00 0.03 0.00 99 1014.7
20260903132055 13 303 3.2 16.1 0.00 0.03 0.00 99 1014.8
20260903131053 13 300 3.2 16.1 0.00 0.03 0.00 99 1014.8
20260903130048 13 235 0.0 16.1 0.00 0.03 0.00 99 1014.8
20260903125044 13 308 4.8 17.7 0.00 0.03 0.00 99 1014.8
20260903124204 13 305 8.0 17.7 0.00 0.03 0.00 99 1014.9
20260903123038 13 297 11.3 17.7 0.00 0.03 0.00 99 1014.8
20260903122035 13 309 12.9 17.7 0.00 0.03 0.00 99 1014.9
20260903121030 13 296 16.1 19.3 0.00 0.03 0.00 99 1014.9
20260903120028 13 304 14.5 19.3 0.00 0.03 0.00 99 1015.1
20260903115024 13 305 12.9 20.9 0.00 0.03 0.03 99 1015.1
20260903114022 13 304 16.1 20.9 0.00 0.03 0.03 99 1015.2
20260903113016 13 298 16.1 20.9 0.00 0.03 0.03 99 1015.4
20260903112113 13 301 17.7 22.5 0.00 0.03 0.03 99 1015.4
20260903111111 13 304 17.7 24.1 0.00 0.03 0.03 99 1015.3
20260903110106 13 303 19.3 24.1 0.00 0.03 0.03 99 1015.5
20260903105126 13 301 17.7 24.1 0.00 0.03 0.03 99 1015.5
20260903104101 13 305 16.1 22.5 0.00 0.03 0.03 99 1015.5
20260903103057 13 305 19.3 27.4 0.00 0.03 0.03 99 1015.7
20260903102052 13 308 19.3 27.4 0.00 0.03 0.03 99 1015.8
20260903101109 13 305 16.1 24.1 0.00 0.03 0.03 99 1015.9
20260903100106 13 296 12.9 17.7 0.00 0.03 0.03 99 1015.9
20260903095042 13 303 16.1 24.1 0.00 0.03 0.03 99 1015.9
20260903094039 13 305 12.9 17.7 0.00 0.03 0.03 99 1015.9
20260903093035 13 299 14.5 17.7 0.00 0.03 0.03 99 1016.0
20260903092031 13 309 17.7 24.1 0.03 0.03 0.03 99 1016.0
20260903091028 13 305 17.7 30.6 0.03 0.03 0.03 99 1015.9
20260903090105 13 313 17.7 25.7 0.03 0.03 0.03 99 1016.0
20260903085021 13 310 19.3 27.4 0.03 0.03 0.03 99 1016.0
20260903084017 13 303 17.7 27.4 0.03 0.03 0.03 99 1016.0
20260903083114 13 307 14.5 17.7 0.03 0.03 0.03 99 1016.0
20260903082110 13 306 14.5 20.9 0.00 0.00 0.00 99 1015.9
20260903081107 13 313 12.9 19.3 0.00 0.00 0.00 99 1016.0
20260903080105 13 313 14.5 24.1 0.00 0.00 0.00 99 1016.1
20260903075100 13 308 14.5 22.5 0.00 0.00 0.00 99 1016.0
20260903074057 13 315 16.1 24.1 0.00 0.00 0.00 99 1016.0
20260903073053 13 315 14.5 17.7 0.00 0.00 0.00 99 1016.0
20260903072111 13 307 14.5 24.1 0.00 0.00 0.00 99 1015.9
20260903071046 13 313 12.9 17.7 0.00 0.00 0.00 99 1015.9
20260903070045 13 312 14.5 27.4 0.00 0.00 0.00 99 1015.8
20260903065039 13 295 16.1 24.1 0.00 0.00 0.00 99 1015.8
20260903064035 13 315 14.5 24.1 0.00 0.00 0.00 99 1015.8
20260903063032 13 309 14.5 20.9 0.00 0.00 0.00 98 1015.7
20260903062029 13 319 16.1 20.9 0.00 0.00 0.00 98 1015.5
20260903061025 13 315 16.1 20.9 0.00 0.00 0.00 97 1015.5
20260903060023 13 312 17.7 24.1 0.00 0.00 0.00 96 1015.5
20260903055018 13 319 17.7 25.7 0.00 0.00 0.00 96 1015.6
20260903054115 13 315 17.7 25.7 0.00 0.00 0.00 95 1015.6
20260903053111 13 315 9.7 24.1 0.00 0.00 0.00 95 1015.5
20260903052110 13 315 16.1 20.9 0.00 0.00 0.00 94 1015.6
20260903051106 13 315 14.5 22.5 0.00 0.00 0.00 93 1015.6
20260903050100 13 315 14.5 22.5 0.00 0.00 0.00 93 1015.5
20260903045057 13 323 12.9 19.3 0.00 0.00 0.00 92 1015.6
20260903044053 13 324 14.5 17.7 0.00 0.00 0.00 92 1015.6
20260903043050 12 0 6.4 9.7 0.00 0.00 0.00 91 1015.7
20260903042046 12 357 11.3 17.7 0.00 0.00 0.00 91 1015.6
20260903041044 13 0 12.9 20.9 0.00 0.00 0.00 91 1015.8
20260903040040 13 349 12.9 20.9 0.00 0.00 0.00 92 1015.9
20260903035035 13 353 12.9 20.9 0.00 0.00 0.00 92 1016.1
20260903034033 12 0 11.3 16.1 0.00 0.00 0.00 92 1016.0
20260903033030 12 349 14.5 20.9 0.00 0.00 0.00 92 1016.1
20260903032046 12 0 14.5 17.7 0.00 0.00 0.00 91 1016.2
20260903031022 12 180 14.5 17.7 0.00 0.00 0.00 91 1016.3
20260903030020 -17 0.0 0.0 0.00 0.00 0.00 1016.4
20260903025115 -17 0.0 0.0 0.00 0.00 0.00 1016.4
20260903024111 13 315 22.5 24.1 0.00 0.00 0.00 90 1016.5
20260903023108 13 315 22.5 25.7 0.00 0.00 0.00 90 1016.5
20260903022105 13 356 22.5 32.2 0.00 0.00 0.00 90 1016.6
20260903021101 13 350 22.5 30.6 0.00 0.00 0.00 89 1016.6
20260903020057 13 340 22.5 35.4 0.00 0.00 0.00 88 1016.6
20260903015053 13 350 19.3 29.0 0.00 0.00 0.00 88 1016.8
20260903014051 13 339 20.9 30.6 0.00 0.00 0.00 87 1017.0
20260903013047 13 332 22.5 30.6 0.00 0.00 0.00 85 1017.3
20260903012043 13 330 20.9 33.8 0.00 0.00 0.00 83 1017.5
20260903011041 13 350 20.9 32.2 0.00 0.00 0.00 80 1017.6
20260903010059 14 343 19.3 27.4 0.00 0.00 0.00 80 1017.8
20260903005033 14 356 17.7 25.7 0.00 0.00 0.00 80 1018.1